sat.trackr.live / text

‹ back to catalog

STARLINK-34832

NORAD 65475 · 2025-195T

PAYLOAD ACTIVE UNKNOWN

§ Identity

Operator
Country
US
Launch date
2025-09-03
Launch site
AFETR
Launch vehicle
Mass (kg)
RCS (m²)

Purposes: comms

External: N2YO · Heavens-Above · Gunter

§ Orbital elements

Epoch: 2026-09-20T21:03:33.937632Z

Period
93.85 min
Inclination
53.1575°
Eccentricity
0.0000301
Mean motion
15.34421513 rev/d
Perigee alt
462.4 km
Apogee alt
462.8 km
Semi-major
6,840.8 km
B*
6.4169e-4
RAAN
67.5949°
Arg perigee
251.1737°
Mean anomaly
108.9233°
Rev number
5,991

§ Raw data

STARLINK-348321 65475U 25195T   26263.87747613  .00021381  00000+0  64169-3 0  99942 65475  53.1575  67.5949 0000301 251.1737 108.9233 15.34421513 59914

JSON: /api/v1/satellites/65475 · /tle

For live sub-satellite position, see the globe view (requires WebGL).

§ Visibility from observer

Set your observer location to see the next 7 days of passes ≥ 10°. The values pass through the URL so the page stays shareable.

No JS? Fill the form by hand. The geolocation button needs JavaScript.